STARLINK-1931, 46790

Orbit data source: Space-Track

STARLINK-1931, 46790 is a payload satellite owned by SpaceX/Seattle (US) in LEO that was launched on Sat, 24 Oct 2020 UTC via an FALCON 9 launch vehicle from the Air Force Eastern Test Range (AFETR). Payload-class satellites include a variety of spacecraft equipped with specific instruments for various scientific and technological missions. These include communications satellites like Starlink; space stations such as the ISS; scientific satellites like the Hubble; Earth observation satellites from companies like Planet Labs, Umbra, and HawkEye 360; GPS; miniature CubeSats for education and research; and military/defense satellites.

Loading next visibility...
Identifier
46790, 2020-074BD
Orbit
LEO
Country
Flag of USUS
Related business
Manufacturer
SpaceX/Seattle
Mission
Partially operational Commercial Communications
Bus & Motor
STARLINK, Unknown motor
Mass
260 kg wet, ~248 kg dry
Launch date (UTC)
2020-10-24 (5 years ago)
Launch vehicle
FALCON 9
Launch site
Air Force Eastern Test Range (AFETR)
Object type
Payload
Rocket body
Debris
Shape & HBR
Box + 1 Pan, 10.1 m
Radar Cross Section
13.562 m², Large (>1 m²)

Expand to show TLE details & history
Last TLE update: 21 hours ago

TLE from 21 hours ago
0 STARLINK-1931
1 46790U 20074BD  26071.94868305  .00096981  00000-0  93954-3 0  9994
2 46790  53.0438 267.2018 0001704   7.6925 352.4116 15.65627915297724
Epoch: 2026-03-12T22:46Z
TLE epoch observation values (Epoch: 2026-03-12T22:46:06.215Z)
Latitude
0.00002°
Longitude
115.08468°
Altitude
371.194 km
Speed
7.689 km/s
True Right ascension
17h 48m 48s
True Declination
0° 00' 00"
Sunlit
Object was in daylight at epoch
Visualization orbit readout
Latitude
Unknown
Longitude
Unknown
Altitude
Unknown
Speed
Unknown
Apparent Right ascension
Unknown
Apparent Declination
Unknown
Sunlit
N/A
Visualization observer readout
Local Sidereal Time
00:17:08
Azimuth
Unknown
Elevation
Unknown
Doppler factor
Unknown
Orbital elements
Apogee altitude
372.863 km
Perigee altitude
370.563 km
Semi-major axis
6,749.85 km
Eccentricity
0.00017
Inclination
53.0438°
RAAN
267.2018°
Arg. of periapsis
7.6925°
True anomaly
352.40902°
Mean anomaly
352.4116°
Eccentric anomaly
352.41031°
Mean motion
3.91383 °/min
Orbital period
91.98 mins
BSTAR
0.00093954
Loading maneuver chart data...
Computing Atmospheric mass density...

Documentation

Showing up to 5 results
|